This demonstration page uses our WeatherBlox Daily Observations layout. Learn more.

Left ArrowRight Arrow

39.08367, -84.50855

Hourly Observations for August 18, 2020

Temp ( °F °C ) Dew Point ( °F °C ) Humidity (%) Winds ( mph kmh ) Pressure ( in mb ) Visibility ( mi km ) Precip ( " mm )
12:53 am 00:53 Clear 69 20.6 65 18.3 87 87 N N/A 29.97 1015 10 16 N/A
1:53 am 01:53 Mostly Cloudy 69 20.6 65 18.3 87 87 N N/A 29.97 1015 10 16 N/A
2:53 am 02:53 Mostly Cloudy 68 20 65 18.3 90 90 E 5 7 29.95 1014 10 16 N/A
3:53 am 03:53 Mostly Clear 68 20 66 18.9 93 93 NE 3 6 29.95 1014 10 16 N/A
4:53 am 04:53 Cloudy 68 20 66 18.9 93 93 N 3 6 29.94 1014 10 16 N/A
5:53 am 05:53 Mostly Clear 67 19.4 65 18.3 93 93 N 3 6 29.94 1014 10 16 N/A
6:53 am 06:53 Cloudy 67 19.4 65 18.3 93 93 N N/A 29.95 1014 10 16 N/A
7:53 am 07:53 Cloudy 68 20 65 18.3 90 90 NE 5 7 29.97 1015 10 16 N/A
8:53 am 08:53 Cloudy 70 21.1 64 17.8 82 82 NE 6 9 29.98 1015 10 16 N/A
9:53 am 09:53 Sunny 73 22.8 63 17.2 71 71 NE 7 11 29.98 1015 10 16 N/A
10:53 am 10:53 Cloudy 70 21.1 62 16.7 76 76 NNE 10 17 30.00 1016 10 16 N/A
11:53 am 11:53 Mostly Cloudy with Light Rain 68 20 59 15 73 73 NNE 9 15 30.00 1016 7 11 0.00 0.00
12:26 pm 12:26 Cloudy with Thunderstorms 66 18.9 62 16.7 87 87 N 7 11 30.00 1016 6 10 0.01 0.25
12:53 pm 12:53 Cloudy with Thunderstorms 66 18.9 62 16.7 87 87 N N/A 30.00 1016 5 8 0.04 1.02
1:41 pm 13:41 Cloudy with Rain 67 19.4 63 17.2 87 87 ENE 5 7 29.97 1015 6 10 0.05 1.27
1:53 pm 13:53 Cloudy with Rain 67 19.4 64 17.8 91 91 N 8 13 29.98 1015 6 10 0.07 1.78
2:22 pm 14:22 Cloudy with Nearby Thunderstorms 67 19.4 64 17.8 91 91 NNW 3 6 29.98 1015 10 16 0.03 0.76
2:37 pm 14:37 Cloudy with Light Rain 67 19.4 64 17.8 91 91 NW 3 6 29.99 1016 6 10 0.04 1.02
2:53 pm 14:53 Cloudy with Light Rain 67 19.4 64 17.8 91 91 NE 6 9 29.97 1015 6 10 0.05 1.27
3:07 pm 15:07 Cloudy with Nearby Thunderstorms 66 18.9 64 17.8 93 93 NNE 3 6 29.97 1015 6 10 0.01 0.25
3:11 pm 15:11 Cloudy with Thunderstorms 66 18.9 64 17.8 93 93 E 3 6 29.97 1015 7 11 0.01 0.25
3:32 pm 15:32 Cloudy with Rain 66 18.9 64 17.8 93 93 N 3 6 29.97 1015 3 5 0.06 1.52
3:53 pm 15:53 Cloudy with Rain 67 19.4 64 17.8 91 91 N N/A 29.97 1015 4 6 0.12 3.05
4:53 pm 16:53 Mostly Cloudy 68 20 65 18.3 90 90 N N/A 29.96 1014 8 13 0.01 0.25
5:53 pm 17:53 Mostly Cloudy 69 20.6 65 18.3 87 87 NNE 3 6 29.96 1014 8 13 N/A
6:53 pm 18:53 Mostly Sunny 70 21.1 65 18.3 84 84 NNE 7 11 29.94 1014 10 16 N/A
7:53 pm 19:53 Mostly Cloudy 69 20.6 65 18.3 87 87 N N/A 29.96 1014 10 16 N/A
8:53 pm 20:53 Mostly Cloudy 67 19.4 66 18.9 97 97 N N/A 29.97 1015 10 16 N/A
9:53 pm 21:53 Cloudy 67 19.4 65 18.3 93 93 N N/A 29.97 1015 10 16 N/A
10:53 pm 22:53 Clear 65 18.3 64 17.8 97 97 N N/A 29.98 1015 8 13 N/A
11:24 pm 23:24 Partly Cloudy with Mist and Fog 64 17.8 63 17.2 96 96 N N/A 29.98 1015 2 3 N/A
11:36 pm 23:36 Clear with Mist and Fog 64 17.8 63 17.2 96 96 N N/A 29.98 1015 3 5 N/A
11:45 pm 23:45 Mostly Cloudy with Mist and Fog 63 17.2 63 17.2 100 100 ENE 3 6 29.98 1015 1 2 N/A
11:50 pm 23:50 Mostly Cloudy with Fog 63 17 63 17 100 100 N N/A 29.98 1015 0 0 N/A
11:53 pm 23:53 Mostly Cloudy with Fog 63 17.2 63 17.2 100 100 E 3 6 29.98 1015 0 0 N/A
11:59 pm 23:59 Mostly Cloudy with Mist and Fog 63 17.2 63 17.2 100 100 N N/A 29.99 1016 1 2 N/A

Powered by AerisWeather